Location: State Camp
(41.2367°N, 77.7828°W)
Time: 13:22:54
(UTC-04:00)

Amateur Radio Satellites - All Passes

Search period start: 24 April 2014 12:52
Search period end: 25 April 2014 12:52
Location: State Camp, 41.2367°N, 77.7828°W

Satellite Date Start Highest point End Downlink Frequencies (MHz)
Time Altitude Azimuth
FUNcube-1 24 Apr 12:54:04 12:57:16 21° 293° (WNW) 13:00:30 145.950 - 145.970 MHz USB
AO-27 24 Apr 13:14:19 13:17:53 19° 62° (ENE) 13:21:28 436.795 MHz FM
Oscar 19 24 Apr 13:14:53 13:19:29 34° 68° (ENE) 13:24:07 437.125 CW, 437.150 USB
KITSAT 1 24 Apr 13:17:23 13:23:31 25° 256° (WSW) 13:29:38 435.175 FM
ISS 24 Apr 13:22:20 13:25:18 30° 136° (SE) 13:28:17 145.800 FM
ITAMSAT 1 24 Apr 13:23:08 13:27:04 22° 64° (ENE) 13:31:00 435.822 SSB
Oscar 16 24 Apr 13:23:50 13:28:41 44° 70° (ENE) 13:33:35 437.025 USB, Beacon 2401.1428
Gurwin Techsat 1B 24 Apr 13:40:22 13:41:04 10° 57° (ENE) 13:41:46 435.225 FM
SO-50 24 Apr 14:05:02 14:08:54 29° 114° (ESE) 14:12:47 436.795 FM
Uribyol 2 24 Apr 14:08:45 14:13:49 61° 72° (ENE) 14:18:55 436.500 FM
AO-Echo 24 Apr 14:12:53 14:17:53 50° 72° (ENE) 14:22:45 ?
RS-15 24 Apr 14:21:02 14:31:27 46° 43° (NE) 14:42:00 29.354 - 29.394 USB, Beacon 29.352 USB
TMSAT-1 24 Apr 14:21:51 14:25:22 18° 62° (ENE) 14:28:54 436.925 FM
AO-27 24 Apr 14:51:53 14:56:58 56° 259° (W) 15:02:04 436.795 MHz FM
Oscar 19 24 Apr 14:54:23 14:58:49 29° 264° (W) 15:03:18 437.125 CW, 437.150 USB
ISS 24 Apr 14:58:52 15:01:58 35° 333° (NNW) 15:05:05 145.800 FM
ITAMSAT 1 24 Apr 15:01:17 15:06:15 46° 261° (W) 15:11:14 435.822 SSB
Oscar 16 24 Apr 15:04:15 15:08:13 22° 267° (W) 15:12:13 437.025 USB, Beacon 2401.1428
JAS-1B 24 Apr 15:04:28 15:10:50 31° 66° (ENE) 15:16:23 435.800 - 435.900 CW/SSB
Gurwin Techsat 1B 24 Apr 15:14:49 15:20:06 75° 74° (ENE) 15:25:25 435.225 FM
AO-7 24 Apr 15:37:41 15:45:05 38° 60° (ENE) 15:52:30 29.400 - 29.500 MHz
SO-50 24 Apr 15:45:21 15:49:23 32° 312° (NW) 15:53:27 436.795 FM
OPAL 24 Apr 15:46:58 15:52:03 49° 102° (ESE) 15:57:05 ?
Uribyol 2 24 Apr 15:50:35 15:53:42 16° 269° (W) 15:56:49 436.500 FM
AO-Echo 24 Apr 15:53:12 15:56:53 19° 267° (W) 16:00:30 ?
UOSAT-12 24 Apr 15:57:28 16:01:02 23° 112° (ESE) 16:04:38 437.025 FM, 437.400 FM
TMSAT-1 24 Apr 15:59:35 16:04:48 61° 259° (W) 16:10:03 436.925 FM
Uosat F 24 Apr 16:14:41 16:19:40 72° 74° (ENE) 16:24:41 435.120 FM
RS-15 24 Apr 16:33:31 16:44:07 58° 247° (WSW) 16:55:01 29.354 - 29.394 USB, Beacon 29.352 USB
ISS 24 Apr 16:37:26 16:39:26 15° 353° (N) 16:41:26 145.800 FM
JAS-1B 24 Apr 16:53:50 17:01:19 48° 259° (W) 17:07:39 435.800 - 435.900 CW/SSB
Gurwin Techsat 1B 24 Apr 16:58:08 17:00:37 13° 271° (W) 17:03:07 435.225 FM
Saudisat 1A 24 Apr 17:08:28 17:08:51 10° 34° (NE) 17:09:13 436.775 MHz
OPAL 24 Apr 17:26:37 17:30:35 22° 299° (WNW) 17:34:32 ?
AO-7 24 Apr 17:29:41 17:37:38 51° 259° (WSW) 17:45:39 29.400 - 29.500 MHz
UOSAT-12 24 Apr 17:36:35 17:40:55 42° 309° (NW) 17:45:21 437.025 FM, 437.400 FM
Uosat F 24 Apr 17:56:47 17:58:58 13° 270° (W) 18:01:09 435.120 FM
ISS 24 Apr 18:14:52 18:17:09 17° 13° (NNE) 18:19:27 145.800 FM
Hamsat 24 Apr 18:36:10 18:40:23 84° 76° (ENE) 18:44:40 145.90 MHz
STRAND 1 24 Apr 18:36:19 18:38:25 12° 90° (E) 18:40:31 ?
Saudisat 1A 24 Apr 18:45:02 18:49:25 58° 54° (NE) 18:53:43 436.775 MHz
JAS-2 24 Apr 19:20:39 19:26:16 78° 75° (ENE) 19:31:30 435.800 - 435.900 CW/SSB, 435.910 FM
SO-67 24 Apr 19:24:48 19:28:11 50° 75° (ENE) 19:31:35 435.3500 MHz FM
HO-68 24 Apr 19:44:25 19:48:56 18° 54° (NE) 19:53:28 435.675 MHz FM
ISS 24 Apr 19:51:07 19:54:26 56° 32° (NNE) 19:57:44 145.800 FM
STRAND 1 24 Apr 20:13:03 20:18:10 75° 286° (WNW) 20:23:14 ?
Saudisat 1A 24 Apr 20:26:04 20:28:31 15° 251° (WSW) 20:30:57 436.775 MHz
MaSat-1 24 Apr 20:55:43 20:58:30 81° 296° (WNW) 21:01:02 437.345 MHz
JAS-2 24 Apr 21:09:52 21:11:54 12° 270° (W) 21:13:54 435.800 - 435.900 CW/SSB, 435.910 FM
HO-68 24 Apr 21:28:31 21:35:40 88° 73° (ENE) 21:42:52 435.675 MHz FM
ISS 24 Apr 21:28:35 21:30:51 17° 228° (SW) 21:33:08 145.800 FM
Oscar 11 24 Apr 22:06:09 22:10:26 78° 76° (ENE) 22:14:47 145.825 FM, Beacon 2401.500 USB
FUNcube-1 24 Apr 22:14:11 22:17:46 28° 69° (ENE) 22:21:21 145.950 - 145.970 MHz USB
SO-50 24 Apr 22:36:12 22:40:18 30° 48° (NE) 22:44:27 436.795 FM
PCSat 24 Apr 22:37:13 22:40:35 17° 104° (ESE) 22:43:58 145.825 MHz
HO-68 24 Apr 23:20:09 23:24:14 16° 271° (W) 23:28:19 435.675 MHz FM
Sapphire 24 Apr 23:33:54 23:39:06 50° 113° (ESE) 23:44:20 437.095 MHz 1200 baud AX-25 AFSK
FUNcube-1 24 Apr 23:50:53 23:54:12 23° 265° (W) 23:57:31 145.950 - 145.970 MHz USB
SO-50 25 Apr 00:16:40 00:20:54 35° 245° (WSW) 00:25:10 436.795 FM
PCSat 25 Apr 00:18:03 00:23:25 66° 301° (WNW) 00:28:50 145.825 MHz
UOSAT-12 25 Apr 00:26:23 00:30:13 24° 44° (NE) 00:34:02 437.025 FM, 437.400 FM
Sapphire 25 Apr 01:18:18 01:22:48 26° 312° (NW) 01:27:19 437.095 MHz 1200 baud AX-25 AFSK
OPAL 25 Apr 01:27:01 01:28:54 12° 56° (NE) 01:30:48 ?
Oscar 19 25 Apr 01:28:39 01:30:21 11° 89° (E) 01:32:01 437.125 CW, 437.150 USB
Oscar 16 25 Apr 01:36:51 01:39:53 16° 91° (E) 01:42:55 437.025 USB, Beacon 2401.1428
KITSAT 1 25 Apr 01:48:44 01:56:29 51° 112° (ESE) 02:04:15 435.175 FM
PCSat 25 Apr 02:05:28 02:07:55 13° 322° (NW) 02:10:22 145.825 MHz
UOSAT-12 25 Apr 02:06:04 02:10:37 48° 243° (WSW) 02:15:06 437.025 FM, 437.400 FM
AO-Echo 25 Apr 02:21:50 02:24:23 14° 91° (E) 02:26:56 ?
Uribyol 2 25 Apr 02:22:17 02:26:13 22° 94° (E) 02:30:09 436.500 FM
OPAL 25 Apr 03:01:55 03:06:58 87° 73° (ENE) 03:12:08 ?
AO-27 25 Apr 03:04:52 03:09:56 52° 100° (E) 03:14:58 436.795 MHz FM
Oscar 19 25 Apr 03:05:05 03:10:18 83° 285° (WNW) 03:15:30 437.125 CW, 437.150 USB
ITAMSAT 1 25 Apr 03:13:55 03:19:03 63° 102° (ESE) 03:24:11 435.822 SSB
Oscar 16 25 Apr 03:14:31 03:19:40 64° 287° (WNW) 03:24:48 437.025 USB, Beacon 2401.1428
Gurwin Techsat 1B 25 Apr 03:31:31 03:36:09 30° 96° (E) 03:40:45 435.225 FM
KITSAT 1 25 Apr 03:44:31 03:52:04 41° 313° (NW) 03:59:39 435.175 FM
AO-Echo 25 Apr 03:58:56 04:03:34 56° 287° (WNW) 04:08:08 ?
Uribyol 2 25 Apr 04:00:58 04:05:54 46° 290° (WNW) 04:10:50 436.500 FM
TMSAT-1 25 Apr 04:15:24 04:20:37 55° 100° (E) 04:25:47 436.925 FM
Uosat F 25 Apr 04:23:14 04:27:05 22° 94° (E) 04:30:54 435.120 FM
JAS-1B 25 Apr 04:37:57 04:43:22 43° 100° (E) 04:49:12 435.800 - 435.900 CW/SSB
AO-27 25 Apr 04:45:20 04:49:03 20° 297° (WNW) 04:52:45 436.795 MHz FM
OPAL 25 Apr 04:45:31 04:46:31 11° 270° (W) 04:47:31 ?
Oscar 19 25 Apr 04:47:20 04:48:48 11° 302° (WNW) 04:50:16 437.125 CW, 437.150 USB
RS-15 25 Apr 04:47:42 04:55:53 24° 102° (ESE) 05:03:51 29.354 - 29.394 USB, Beacon 29.352 USB
ITAMSAT 1 25 Apr 04:54:45 04:58:02 17° 299° (WNW) 05:01:19 435.822 SSB
Gurwin Techsat 1B 25 Apr 05:11:21 05:16:07 35° 292° (WNW) 05:20:52 435.225 FM
MaSat-1 25 Apr 05:18:33 05:20:45 17° 59° (ENE) 05:23:10 437.345 MHz
AO-7 25 Apr 05:30:43 05:38:54 58° 103° (ESE) 05:47:04 29.400 - 29.500 MHz
KITSAT 1 25 Apr 05:46:03 05:50:07 14° 339° (NNW) 05:54:11 435.175 FM
STRAND 1 25 Apr 05:51:45 05:55:22 20° 63° (ENE) 05:59:01 ?
TMSAT-1 25 Apr 05:56:20 06:00:06 20° 297° (WNW) 06:03:52 436.925 FM
Uosat F 25 Apr 06:01:20 06:06:02 42° 290° (WNW) 06:10:43 435.120 FM
Hamsat 25 Apr 06:23:21 06:25:59 16° 91° (E) 06:28:37 145.90 MHz
JAS-1B 25 Apr 06:29:19 06:33:53 26° 296° (WNW) 06:38:41 435.800 - 435.900 CW/SSB
AO-40 25 Apr 06:41:17 09:49:28 24° 135° (SE) 11:15:03 Beacon 2401.320
RS-15 25 Apr 06:55:28 07:06:50 87° 302° (WNW) 07:17:52 29.354 - 29.394 USB, Beacon 29.352 USB
MaSat-1 25 Apr 06:56:16 06:59:02 26° 248° (WSW) 07:02:13 437.345 MHz
PCSat 25 Apr 07:23:44 07:27:21 18° 42° (NE) 07:30:56 145.825 MHz
AO-7 25 Apr 07:24:05 07:31:17 34° 302° (WNW) 07:38:30 29.400 - 29.500 MHz
STRAND 1 25 Apr 07:29:13 07:34:10 52° 260° (W) 07:39:10 ?
KITSAT 1 25 Apr 07:47:20 07:49:57 12° 11° (N) 07:52:34 435.175 FM
PANSAT 25 Apr 07:51:38 07:53:18 12° 179° (S) 07:54:57 not established
Hamsat 25 Apr 07:58:01 08:02:13 46° 287° (WNW) 08:06:23 145.90 MHz
JAS-2 25 Apr 08:13:01 08:18:37 69° 102° (ESE) 08:24:53 435.800 - 435.900 CW/SSB, 435.910 FM
Sapphire 25 Apr 08:21:52 08:27:00 41° 54° (NE) 08:32:05 437.095 MHz 1200 baud AX-25 AFSK
SO-67 25 Apr 08:22:14 08:25:43 64° 101° (E) 08:29:11 435.3500 MHz FM
Saudisat 1A 25 Apr 08:53:31 08:56:03 15° 109° (ESE) 08:58:36 436.775 MHz
HO-68 25 Apr 08:58:16 09:02:26 16° 90° (E) 09:06:34 435.675 MHz FM
PCSat 25 Apr 09:06:01 09:11:28 84° 242° (WSW) 09:16:53 145.825 MHz
RS-15 25 Apr 09:11:22 09:20:52 31° 328° (NNW) 09:30:16 29.354 - 29.394 USB, Beacon 29.352 USB
KITSAT 1 25 Apr 09:41:57 09:48:45 28° 40° (NE) 09:55:29 435.175 FM
Oscar 11 25 Apr 09:55:23 09:57:47 14° 91° (E) 10:00:09 145.825 FM, Beacon 2401.500 USB
JAS-2 25 Apr 09:59:40 10:03:18 18° 297° (WNW) 10:07:08 435.800 - 435.900 CW/SSB, 435.910 FM
Sapphire 25 Apr 10:05:39 10:10:14 29° 251° (WSW) 10:14:48 437.095 MHz 1200 baud AX-25 AFSK
Saudisat 1A 25 Apr 10:30:47 10:35:11 59° 306° (NW) 10:39:36 436.775 MHz
HO-68 25 Apr 10:43:44 10:50:58 88° 287° (WNW) 10:58:10 435.675 MHz FM
PCSat 25 Apr 10:53:07 10:53:59 10° 259° (W) 10:54:50 145.825 MHz
Oscar 11 25 Apr 11:30:01 11:34:15 50° 287° (WNW) 11:38:28 145.825 FM, Beacon 2401.500 USB
RS-15 25 Apr 11:30:37 11:38:10 20° 4° (N) 11:45:43 29.354 - 29.394 USB, Beacon 29.352 USB
KITSAT 1 25 Apr 11:36:55 11:45:02 81° 242° (WSW) 11:53:05 435.175 FM
FUNcube-1 25 Apr 11:38:46 11:43:04 64° 101° (E) 11:47:27 145.950 - 145.970 MHz USB
Saudisat 1A 25 Apr 12:14:57 12:15:44 10° 326° (NW) 12:16:31 436.775 MHz
HO-68 25 Apr 12:33:08 12:37:42 18° 306° (NW) 12:42:16 435.675 MHz FM
ISS 25 Apr 12:34:21 12:36:38 18° 132° (SE) 12:38:57 145.800 FM
Oscar 19 25 Apr 12:44:49 12:48:17 19° 62° (ENE) 12:51:46 437.125 CW, 437.150 USB
AO-27 25 Apr 12:48:26 12:49:32 11° 57° (ENE) 12:50:39 436.795 MHz FM
